Regional Weather Roundup
Issued by NWS Newport/Morehead, NC

Current Version | Previous Version | Graphics & Text | Print | Product List | Glossary Off
Versions: 1 2 3 4 5 6 7 8 9 10 11 12 13 14 15 16 17 18 19 20 21 22 23 24 25 26 27 28 29 30 31 32 33 34 35 36 37 38 39 40 41 42 43 44 45 46 47 48 49 50

000
ASUS42 KMHX 060225
RWRMHX
WEATHER ROUNDUP FOR EASTERN NORTH CAROLINA
NATIONAL WEATHER SERVICE NEWPORT/MOREHEAD CITY NC
1000 PM EDT SUN JUL 05 2015

NOTE: "FAIR" INDICATES FEW OR NO CLOUDS BELOW 12,000 FEET
WITH NO SIGNIFICANT WEATHER AND/OR OBSTRUCTIONS TO VISIBILITY

NCZ015>017-031-032-045>047-102-103-060300-
NORTH COAST

CITY           SKY/WX    TMP DP  RH WIND       PRES   REMARKS
EDENTON          N/A     80  72  74 S9        30.12R
ELIZABETH CITY HAZE      80  73  79 S5        30.11R VSB 3/4
KITTY HAWK     PTCLDY    80  74  80 SW6       30.12R
MANTEO         PTCLDY    80  75  85 S13       30.13R

$$

NCZ045>047-081-094-103-104-060300-
CENTRAL COAST

CITY           SKY/WX    TMP DP  RH WIND       PRES   REMARKS
FRISCO         CLEAR     77  74  90 SW9       30.14R
SWANQUARTER      N/A     81 N/A N/A SW16G23   30.09S

$$

NCZ095-097-098-100-101-060300-
SOUTHERN COAST

CITY           SKY/WX    TMP DP  RH WIND       PRES   REMARKS
BEAUFORT       CLEAR     80  77  90 SW15      30.14R
CEDAR ISLAND     N/A     81 N/A N/A S8G14     30.18R
JACKSONVILLE   PTCLDY    78  73  84 S6        30.13R
PINEY ISLAND   CLEAR    N/A N/A N/A S6        30.14R
WILMINGTON     MOCLDY    80  73  79 SW12      30.13R


$$

NCZ011>013-027>030-043-044-078>080-089-090>093-098-060300-
COASTAL PLAIN

CITY           SKY/WX    TMP DP  RH WIND       PRES   REMARKS
AHOSKIE        CLOUDY   N/A N/A N/A N5        30.13R
CLINTON        CLOUDY    78  73  85 SW3       30.13R
ELIZABETHTOWN  MOCLDY    78  73  84 S3        30.12S
GOLDSBORO      MOCLDY    82  74  77 SW3       30.10R
GREENVILLE     PTCLDY    81  73  78 S12       30.12R
HAVELOCK       CLEAR     79  75  87 SW8       30.14R
KENANSVILLE    PTCLDY    79  71  75 CALM      30.13R
KINSTON        PTCLDY    81  72  74 S6        30.12R
NEW BERN       PTCLDY    79  74  84 S7        30.13R
RICHLANDS      PTCLDY    77  68  73 S5        30.14R
ROCKY MOUNT    CLOUDY    75  74  96 CALM      30.11R
WASHINGTON     PTCLDY    79  72  78 S6        30.13R
WHITEVILLE     MOCLDY    79  72  78 S3        30.12R

$$

AMZ130-135-150-152-154-156-158-170-250-252-270-ANZ085-086-088-633-658-670-060300-
MARINE OBSERVATIONS

STATION/POSITION TIME  TEMP    WIND        PRES    WAVE   SWELL
                       AIR SEA DIR/SP/G            HT/PER HT/PER
                 (UTC) (F)     (DEG/KT/KT) (MB)    (FT/S) (FT/S)
CHESAPEAKE LIGHT 0200   77      90/ 11/ 12 1020.9
64 E VA BEACH    0150   78 78  140/  6/  8 1019.8    3/ 6   3/ 6
DUCK             0200   81 76  200/ 12/ 16   N/A
2 E DUCK         0111      79                N/A     2/14   2/14
OREGON INLET     0200   81 84  190/ 19/ 21 1020.2
13E OREGON INLT  0200      78                N/A     3/13   2/13
HATTERAS CG      0200   79 81  210/  9/ 13 1020.4
DIAMOND BUOY     0150   82 81  220/ 16/ 17 1020.4    3/ 9   2/ 9
CAPE LOOKOUT     0200   80     210/ 11/ 14 1020.8
BEAUFORT LAB     0200   80 82  210/ 11/ 14 1020.1
30 SE NEW RVR IN NOT AVBL
27 SE WRIGHTSVLE 0200      80  220/ 12/ 14   N/A
5 SE WRIGHTSVLE  0108   80 78  220/ 14/ 17 1019.8
225 S CAPE HAT   0150   81 80  180/  8/ 10 1022.8    3/ 8   3/ 8
41 SE CHARLESTON 0150   82 83  210/ 16/ 17 1019.3    4/ 9   2/ 9

$$



USA.gov is the U.S. government's official web portal to all federal, state and local government web resources and services.